www.pogodaiklimat.ru

Погода и климат >> Архив погоды >> Россия >> город Санкт-Петербург >> Санкт-Петербург


АРХИВ ПОГОДЫ в Санкт-Петербурге

Время (UTC), дата Ветер
(напр.,м/с)
 
Видим.   Явления Облачность Т
(С)
Тd
(С)
f
(%)
Тe
(С)
Тes
(С)
Комфортность P
(гПа)
Po
(гПа)
Тmin
(С)
Tmax
(С)
R
(мм)
R24
(мм)
S
(см)
21 15.09 Ю 2 10 км 8/8 600 м
[Cu med, cong Ac trans]
+15.7 +8.0 60 +16 +16 тепло 1011.7 1011.0
00 16.09 Ю 2 10 км 9/8 600 м
[Cu med, cong Ac trans]
+14.4 +8.7 69 +14 +14 тепло 1010.2 1009.5
03 16.09 ЮЗ 2 4000 м слабый дождь 10/10 200 м
[Cu Sc]
+13.2 +9.9 80 +12 +12 тепло 1008.9 1008.2 +13.2
06 16.09 З 2 10 км слабый дождь {ливн. осадки} 9/9 300 м
[St As op]
+11.8 +10.4 91 +11 +11 по сезону 1009.6 1008.9 +11.8 7
09 16.09 СЗ 3 10 км {ливн. осадки, дождь} 9/9 300 м
[Cu hum Ac trans]
+13.6 +10.8 83 +12 +13 по сезону 1011.2 1010.5
12 16.09 З 3 10 км {ливн. осадки, дождь} 6/6 600 м
[Cu hum]
+15.8 +9.2 65 +15 +17 тепло 1012.6 1011.9
15 16.09 З 2 10 км 3/3 600 м
[Cu hum Ac trans]
+19.0 +6.6 44 +20 +20 тепло 1013.2 1012.5 9
18 16.09 ЮЗ 1 10 км {гроза, ливн. осадки} 3/3 600 м
[Cu hum Ac trans]
+11.8 +8.6 81 +12 +12 по сезону 1013.6 1012.9 +16.9 4
21 16.09 ЮЗ 3 10 км 3/3 600 м
[Cu hum]
+12.5 +8.5 77 +11 +11 по сезону 1013.5 1012.8
00 17.09 ЮЗ 3 10 км 4/4 300 м
[Cu hum]
+11.5 +8.7 83 +10 +10 по сезону 1013.1 1012.4
03 17.09 ЮЗ 2 10 км 3/3 300 м
[Sc diur, vesp Ac trans]
+10.4 +9.0 91 +9 +9 по сезону 1013.1 1012.4 +10.0 2
06 17.09 ЮЗ 3 10 км 9/0
[Ac trans]
+10.8 +8.6 86 +9 +9 по сезону 1012.7 1012.0 +10.0
09 17.09 ЮЗ 4 10 км 10/4 1500 м
[Sc As trans]
+13.6 +9.0 74 +12 +13 по сезону 1011.4 1010.7
12 17.09 Ю 3
{10}
1000 м дождь 10/10 600 м
[]
+12.4 +9.9 85 +11 +11 по сезону 1008.1 1007.4
15 17.09 Ю 4
{10}
10 км слабый дождь 10/10 360 м
[Frnb Ns]
+12.3 +10.9 91 +10 +10 по сезону 1004.3 1003.6 7
18 17.09 ЮЗ 4 10 км в посл. час дождь {ливн. осадки} 8/8 600 м
[Sc diur, vesp]
+14.0 +11.9 87 +13 +13 тепло 1003.4 1002.7 +14.1 10
21 17.09 З 3
{11}
10 км {ливн. осадки} 8/8 1000 м
[Sc diur, vesp]
+14.5 +10.4 76 +14 +14 тепло 1004.2 1003.5
00 18.09 СЗ 4-10
{10}
10 км в посл. час дождь {ливн. осадки} 9/9 600 м
[Sc diur, vesp]
+13.1 +10.5 84 +11 +11 тепло 1006.0 1005.3
03 18.09 З 3
{10}
10 км 8/8 600 м
[Sc diur, vesp]
+11.4 +7.0 74 +10 +10 по сезону 1009.2 1008.5 +11.3 4
06 18.09 СЗ 3 10 км 4/3 600 м
[Cu hum Cs]
+12.9 +7.6 70 +12 +12 тепло 1011.9 1011.2 +10.7 2
09 18.09 З 3 10 км 8/3 600 м
[Cu hum Cc]
+15.1 +8.2 63 +14 +17 тепло 1013.3 1012.5
12 18.09 З 4 10 км 10/1 50 м
[Cu hum Ac trans]
+15.8 +7.5 58 +15 +16 тепло 1013.8 1013.1
15 18.09 З 2 10 км 10/0
[Ac und]
+15.3 +8.2 63 +15 +15 тепло 1013.0 1012.3
18 18.09 ЮЗ 2 10 км слабый дождь 10/8 300 м
[Sc Ac trans]
+14.4 +10.5 77 +14 +14 тепло 1012.8 1012.1 +16.5 0.0
21 18.09 Ю 2 10 км слабая морось {дождь} 10/10 300 м
[St]
+12.9 +11.4 91 +12 +12 тепло 1011.0 1010.3
00 19.09 ЮЗ 3 10 км {дождь, морось} 10/10 600 м
[Sc]
+14.5 +12.6 88 +14 +14 тепло 1009.5 1008.8
03 19.09 ЮЗ 3 10 км 10/10 600 м
[Sc]
+14.6 +11.7 83 +14 +14 тепло 1009.4 1008.7 +12.8 0.1
06 19.09 ЮЗ 2 10 км 5/4 1000 м
[Cu hum]
+14.4 +11.4 82 +14 +15 тепло 1009.1 1008.4 +12.8
09 19.09 ЮЗ 3 10 км ясно +18.3 +12.2 68 +19 +23 тепло 1008.6 1007.9
12 19.09 ЮЗ 3 10 км 3/3 600 м
[Cu hum]
+22.4 +12.9 55 +25 +27 комфорт 1007.2 1006.5
15 19.09 СЗ 3 10 км ясно +20.0 +13.0 64 +22 +22 комфорт 1007.1 1006.4
18 19.09 З 2 10 км 4/4 1000 м
[Cu hum]
+16.7 +13.3 80 +17 +17 тепло 1007.9 1007.2 +23.6
21 19.09 З 3 10 км 9/9 300 м
[Cu med, cong]
+15.7 +13.4 86 +15 +15 тепло 1008.1 1007.4
00 20.09 З 2 10 км 4/4 600 м
[Cu med, cong]
+15.1 +13.4 90 +15 +15 тепло 1009.0 1008.3
03 20.09 ЮЗ 3 10 км 4/4 600 м
[Cu hum]
+14.8 +13.0 89 +14 +14 тепло 1010.1 1009.4 +14.7
06 20.09 ЮЗ 3 10 км 1/1 600 м
[Cu hum]
+15.1 +12.5 84 +14 +15 тепло 1011.3 1010.6 +14.0
09 20.09 ЮЗ 3 10 км 8/8 600 м
[]
+18.6 +13.5 72 +19 +20 тепло 1011.1 1010.4
12 20.09 ЮЗ 4 10 км 8/0
[Ac trans]
+20.9 +13.5 63 +24 +25 комфорт 1010.9 1010.2
15 20.09 ЮЗ 3 10 км 8/0
[As trans]
+20.7 +13.4 63 +24 +24 комфорт 1010.5 1009.8
18 20.09 ЮЗ 3 10 км 3/0
[Ac trans]
+18.5 +13.6 73 +19 +19 тепло 1009.9 1009.2 +21.4
21 20.09 ЮЗ 3 10 км 3/0
[Ac trans]
+17.1 +13.4 79 +17 +17 тепло 1010.5 1009.8
00 21.09 ЮЗ 3 10 км 3/0
[Ac trans]
+16.2 +13.1 82 +16 +16 тепло 1010.5 1009.8
03 21.09 ЮЗ 3 10 км 10/10 300 м
[Sc]
+15.9 +13.2 84 +15 +15 тепло 1011.5 1010.8 +15.8
06 21.09 ЮЗ 2 10 км 9/9 600 м
[Sc Ac cast]
+16.1 +13.5 85 +16 +16 тепло 1012.3 1011.5 +15.4
09 21.09 ЮЗ 3 10 км 9/9 1000 м
[Sc]
+18.2 +13.4 74 +19 +19 тепло 1013.0 1012.3
12 21.09 ЮЗ 3 10 км 1/1 600 м
[Cu hum]
+21.1 +16.1 73 +24 +27 комфорт 1012.5 1011.8
15 21.09 Ю 3 10 км 4/0
[Ci fib]
+21.1 +13.5 62 +24 +24 комфорт 1011.5 1010.8
18 21.09 Ю 3 10 км 6/0
[Ac cast]
+19.9 +13.5 67 +22 +22 комфорт 1009.7 1009.0 +21.8
21 21.09 Ю 3 10 км 3/0
[Ci fib]
+19.1 +13.0 68 +20 +20 тепло 1007.9 1007.2
00 22.09 Ю 3 10 км ясно +18.8 +13.5 71 +20 +20 тепло 1005.9 1005.2
03 22.09 ЮВ 2 10 км 9/3 1000 м
[Sc Ac trans]
+18.0 +12.9 72 +19 +19 тепло 1002.9 1002.2 +18.0
06 22.09 Ю 3 10 км 3/0
[Ci sp]
+18.3 +12.4 68 +19 +20 тепло 1000.3 999.6 +17.4
09 22.09 З 4-12
{12}
10 км 10/10 1000 м
[Sc diur, vesp]
+19.0 +12.1 64 +20 +20 тепло 1000.8 1000.1
12 22.09 Ю 4 10 км {ливн. осадки} 10/0
[As op]
+12.9 +9.4 79 +11 +12 по сезону 1003.0 1002.3
15 22.09 Ю 3 10 км 8/3 600 м
[Cu hum As trans Ci fib]
+13.4 +9.4 77 +12 +12 по сезону 1003.1 1002.4 0.7
18 22.09 Ю 4 10 км 6/3 600 м
[Cu hum Ac trans]
+13.1 +9.4 78 +11 +11 по сезону 1003.2 1002.5 +20.4 0.7

 

Местоположение метеостанции Санкт-Петербург (город Санкт-Петербург, Россия): широта 59.97 долгота 30.30 высота над уровнем моря 6 м.

В архиве по умолчанию представлена погода в Санкт-Петербурге за последнюю неделю. Архивные данные за месяц целиком и за предыдущие месяцы, начиная с января 2011 года, Вы можете получить, выбрав интересующий диапазон дат из раскрывающегося списка и нажав кнопку "Ввод!".


*Определитесь, кто Вы:
робот инопланетянин человек

Внимание! Время в таблицах - всемирное. Для получения местного времени необходимо прибавить поправку, которая в Санкт-Петербурге равна 3 ч.

Смотрите также архив погоды в соседних городах и на ближайших метеорологических станциях:

Погода в Лисьем Носу (город Санкт-Петербург, Россия) (19 км)
Погода в Воейково (город Санкт-Петербург, Россия) (22 км)
Погода в Ломоносове (город Санкт-Петербург, Россия) (29 км)
Погода в Кронштадте (город Санкт-Петербург, Россия) (30 км)
Погода в Шлиссельбурге (Ленинградская область, Россия) (39 км)
Погода в Рощино (Ленинградская область, Россия) (48 км)
Погода в Шепелево (Ленинградская область, Россия) (58 км)
Погода в Сосново (Ленинградская область, Россия) (65 км)
Погода в Сосновом Бору (Ленинградская область, Россия) (65 км)
Погода в Белогорке (Ленинградская область, Россия) (70 км)

Пояснения к столбцам:

Ветер - указаны скорость ветра в м/с - средняя за 10 мин, порывы в срок и между сроками (в фигурных скобках) и направление, откуда дует ветер: С - северный, СВ - северо-восточный, В - восточный, ЮВ - юго-восточный, Ю - южный, ЮЗ - юго-западный, З - западный, СЗ - северо-западный.
Видимость - горизонтальная дальность видимости в метрах или километрах. При видимости от 1 до 10 км при отсутствии осадков обычно наблюдается дымка, при ухудшении видимости до 1 км и менее - туман. В сухую погоду видимость может ухудшаться дымом, пылью или мглою.
Явления - указаны атмосферные явления, наблюдавшиеся в срок или в последний час перед сроком; фигурными скобками обозначены явления, наблюдавшиеся между сроками (за 1-3 часа до срока); квадратными скобками обозначены град или гололедные отложения с указанием их диаметра в мм.
Облачность - указаны через наклонную черту общая и нижняя облачность в баллах и высота нижней границы облаков в метрах; квадратными скобками обозначены формы облаков: Ci - перистые, Cs - перисто-слоистые, Cc - перисто-кучевые, Ac - высококучевые, As - высокослоистые, Sc - слоисто-кучевые, Ns - слоисто-дождевые, Cu - кучевые, Cb - кучево-дождевые. Подробнее классификацию облаков см. в Атласе облаков (PDF).
T - Температура воздуха - температура, измеренная на высоте 2 м над землей.
Td - Температура точки росы - температура, при понижении до которой содержащийся в воздухе водяной пар достигнет насыщения.
f - Относительная влажность воздуха - влажноcть воздуха, измеренная на высоте 2 м над землей.
Te - Эффективная температура - температура, которую ощущает одетый по сезону человек в тени. Характеристика душности погоды. При расчете учитывается влияние влажности воздуха и скорости ветра на теплоощущения человека.
Tes - Эффективная температура на солнце - температура, которую ощущает человек, с поправкой на солнечный нагрев. Характеристика знойности погоды. Зависит от высоты солнца над горизонтом, облачности и скорости ветра. Ночью, в пасмурную погоду, а также при ветре 12 м/с и более поправка равна нулю.
P - Атмосферное давление - приведенное к уровню моря атмосферное давление.
Po - Атмосферное давление - измеренное на уровне метеостанции атмосферное давление.
Tmin - Минимальная температура - минимум температуры воздуха на высоте 2 м над землей.
Tmax - Максимальная температура - максимум температуры воздуха на высоте 2 м над землей.
R - Количество осадков - Количество выпавших осадков за период времени, мм. При наведении курсора мыши на число - период времени, за который выпало указанное количество осадков.
R24 - Количество осадков - Количество выпавших осадков за 24 часа, мм.
S - Снежный покров - Высота снежного покрова, см. При наведении курсора мыши на число - состояние снежного покрова и степень покрытия местности в баллах.